Theta_e
321 319 317 315 314 315 315 314 313 312 312 313 313 313 313 312 312 313 311 311 311 311 311 310 310 311 311 311 311 310 309 308 308 308 307 307 307 307 307 308 308 308 309 310 311 313 314 313 314 315 316 317 317 318 322 324 324 327 332 336 336 336 337 337 337 337 337 336 336 336 337 337 337 337 337 338 338 336 333 333 337 340 340 339 339 340 342
320 318 314 314 314 315 315 314 315 313 312 314 314 314 314 312 312 312 311 311 311 310 310 310 310 311 311 311 311 310 308 308 308 307 307 307 307 308 308 308 308 309 310 311 311 313 313 313 314 315 315 317 317 319 323 326 326 327 331 335 336 336 336 336 336 337 337 336 336 336 336 337 337 337 338 338 337 336 334 334 336 338 339 339 339 339 341
320 318 314 314 314 315 314 312 314 313 312 313 314 313 314 313 312 312 311 311 311 309 309 310 310 311 312 312 311 310 308 308 308 307 307 308 308 308 308 308 308 309 310 312 312 313 313 313 313 314 316 317 318 320 324 326 326 327 330 333 335 334 335 336 336 337 337 337 336 336 336 337 337 337 337 338 338 337 334 332 333 334 336 337 339 339 341
320 319 316 315 314 314 314 313 313 313 312 312 312 311 311 312 313 312 311 310 311 310 309 310 311 311 311 312 311 310 309 308 308 307 307 308 308 308 308 308 309 310 311 312 313 313 313 313 313 315 316 317 318 320 324 326 326 327 331 333 333 333 333 334 335 336 337 337 337 337 336 337 337 337 337 337 338 337 334 331 332 333 333 336 338 339 340
320 320 316 315 314 314 317 316 312 313 313 312 312 311 311 312 312 311 310 311 310 310 310 311 312 311 311 312 311 310 310 308 307 307 307 307 307 308 309 309 309 311 312 313 314 315 314 314 314 315 316 317 318 318 322 325 326 327 329 332 333 333 333 333 333 334 335 336 336 336 336 337 336 337 337 337 337 337 335 334 333 334 334 335 336 337 339
320 321 315 315 317 317 319 318 312 311 314 313 312 312 312 313 313 310 311 311 310 310 310 311 312 311 310 311 310 309 308 308 307 307 307 307 307 308 308 309 310 312 312 314 315 315 315 314 314 315 316 317 318 318 319 322 324 325 326 328 329 330 331 331 331 332 333 334 335 335 336 336 336 336 337 337 337 337 336 334 334 334 335 336 336 336 338
318 319 315 317 320 318 318 318 313 312 313 312 311 313 313 314 313 311 311 311 310 310 311 311 311 310 309 309 309 308 307 306 307 307 307 307 307 308 308 309 311 312 312 314 316 315 314 314 315 316 316 317 318 318 318 321 322 323 323 325 326 326 327 328 328 329 330 332 333 334 334 334 334 335 336 336 337 337 336 335 335 335 336 337 337 337 337
317 318 318 319 318 315 315 317 315 314 313 311 311 313 314 313 311 310 310 310 310 310 310 311 311 310 309 308 308 307 306 306 307 307 307 307 307 307 308 309 311 311 312 315 316 315 315 315 316 316 317 317 318 318 319 321 322 322 323 324 325 325 326 327 327 328 329 331 332 334 334 334 335 336 336 337 337 337 337 335 335 336 336 336 336 337 337
314 315 319 319 316 315 316 315 314 314 313 311 311 312 313 312 310 310 310 310 310 310 311 311 311 309 309 308 308 307 306 306 306 306 306 307 307 307 308 309 310 311 312 315 317 317 316 317 317 317 317 318 318 319 321 323 323 323 324 324 325 326 327 328 328 328 329 330 331 331 332 334 336 337 337 337 337 337 336 335 334 334 334 334 335 336 336
313 315 318 318 318 318 318 316 315 315 313 312 311 312 314 314 310 310 310 309 309 311 311 311 311 310 310 309 308 307 307 306 306 305 306 306 307 307 308 309 310 310 311 314 317 317 317 317 317 317 318 319 319 320 323 325 324 324 324 324 325 327 328 329 328 328 328 330 330 329 329 331 334 335 335 335 335 336 335 335 335 335 334 335 336 336 336
316 316 315 317 320 320 318 317 317 316 313 311 311 312 314 314 311 310 309 308 310 312 311 311 310 310 311 310 309 308 307 306 305 305 305 306 306 307 307 308 309 310 311 314 316 316 316 317 318 318 319 319 319 321 324 326 325 324 325 325 325 327 328 328 328 328 328 328 328 329 330 330 331 332 332 331 332 334 334 333 334 334 334 335 336 335 335
316 314 313 316 319 317 316 317 317 316 312 310 311 312 313 312 310 310 309 308 310 312 312 311 310 311 311 310 309 308 306 305 304 304 305 306 306 306 307 308 308 309 311 312 313 315 315 317 319 319 319 320 319 320 323 325 325 325 325 326 326 327 327 326 327 328 328 327 327 327 329 330 330 331 330 329 330 333 333 332 332 332 332 333 334 335 336
317 315 313 316 316 315 317 318 315 314 313 312 312 312 312 310 311 310 308 308 310 313 312 311 311 311 310 309 308 307 306 305 304 304 304 305 305 306 307 307 308 309 310 311 312 313 314 315 318 319 319 319 318 319 322 324 324 325 326 326 325 326 326 324 324 326 328 327 327 328 329 330 331 330 329 329 330 331 331 332 332 332 332 333 334 335 336
317 315 315 316 316 314 315 316 313 314 316 314 313 315 314 312 311 310 309 308 310 313 313 311 311 311 310 309 307 306 305 304 304 303 304 304 305 305 306 307 307 308 309 310 311 312 312 313 315 317 319 319 318 319 320 321 322 323 325 325 323 323 324 323 322 325 327 328 327 328 329 330 331 332 331 331 331 331 331 332 332 332 333 333 333 334 334
316 316 316 316 316 315 314 313 312 315 317 316 315 315 315 313 311 310 309 308 310 313 313 312 311 311 309 308 307 306 305 305 304 303 303 304 305 305 306 306 307 308 309 310 310 310 310 311 313 314 316 317 318 319 320 320 320 320 322 323 323 323 323 323 323 325 327 328 328 329 330 331 332 332 332 331 332 332 332 333 333 333 333 333 333 334 334
317 317 316 315 316 317 317 315 314 314 316 318 317 314 312 312 312 310 309 308 310 312 314 313 312 311 309 308 307 306 305 305 304 303 303 303 304 305 305 306 306 307 308 309 309 309 309 310 310 311 312 314 315 316 317 320 322 321 320 321 321 322 322 322 323 326 327 328 329 329 331 332 333 332 331 331 331 332 333 333 333 333 333 333 334 334 334
317 316 317 318 317 317 316 316 316 315 314 315 315 312 311 312 311 309 309 309 309 310 313 313 312 311 310 308 307 307 305 304 304 303 303 303 304 304 305 305 305 307 308 308 308 308 308 309 309 309 309 310 312 313 315 318 322 324 321 320 320 322 323 323 324 327 329 330 330 328 328 330 332 332 331 332 331 331 332 332 333 333 333 333 333 334 334
317 315 315 316 316 316 316 314 315 315 313 312 313 311 310 311 311 310 309 310 309 309 311 313 312 311 310 309 307 307 306 305 304 303 303 303 303 304 305 305 305 306 307 307 307 308 308 308 308 308 308 308 309 310 313 317 321 324 323 322 321 323 327 329 330 331 332 333 333 330 327 328 331 331 330 331 331 332 332 332 332 332 333 333 333 333 333
317 315 316 317 316 318 319 314 312 312 311 312 313 311 310 310 311 311 311 310 309 309 310 312 313 312 310 309 308 307 306 305 304 303 303 303 304 304 304 304 305 306 306 307 307 307 307 307 307 307 307 307 308 309 312 316 320 323 323 323 322 323 326 330 333 335 335 335 335 334 331 330 331 331 330 330 329 330 331 331 331 331 331 331 332 332 332
317 318 320 320 318 318 318 315 313 313 311 312 313 312 311 311 311 311 310 308 309 309 309 310 312 312 311 310 308 307 306 305 304 304 303 303 303 304 304 304 304 305 306 306 306 306 306 306 306 306 306 306 307 309 311 314 318 321 321 321 323 324 324 325 328 331 332 331 332 333 332 331 329 329 329 329 328 330 331 332 331 330 331 331 332 333 333
318 318 318 319 318 317 317 316 315 315 313 312 313 313 313 313 313 313 310 307 307 308 308 309 311 312 312 311 310 308 307 305 304 304 303 303 304 304 304 304 304 304 305 306 306 306 305 305 306 305 305 306 306 308 309 312 315 318 319 320 321 322 323 324 325 326 326 327 328 329 330 329 328 327 327 327 327 328 331 331 330 329 330 331 333 334 335
320 319 318 317 315 315 317 316 315 315 314 313 313 313 313 312 312 312 311 309 307 306 306 306 309 311 312 312 310 309 308 306 304 304 303 303 304 304 304 304 304 304 304 305 305 305 305 305 305 305 305 305 305 307 308 310 312 315 316 318 320 320 320 321 322 324 325 325 326 327 327 327 327 326 326 327 328 328 329 329 329 329 329 329 332 334 336
321 322 321 317 313 313 317 318 316 315 315 315 313 311 311 311 311 311 311 310 309 308 306 304 305 310 311 309 308 310 309 306 304 304 304 304 304 304 305 305 304 304 304 304 305 305 305 305 305 305 305 305 305 306 307 308 310 312 314 316 317 317 317 318 320 322 324 325 325 326 327 327 327 327 327 327 328 329 330 331 330 330 330 330 331 332 334
318 320 320 316 312 313 316 318 317 316 315 315 313 311 311 312 311 309 310 311 309 308 309 306 303 306 306 305 306 310 309 306 305 305 304 304 304 304 305 305 305 304 304 304 304 304 305 304 304 304 304 304 304 305 306 307 309 310 312 313 314 313 313 315 317 320 322 324 324 325 326 327 327 327 327 326 327 328 329 331 331 331 331 330 331 332 332
315 318 320 315 312 312 315 316 316 313 311 311 312 311 310 310 308 306 308 310 307 306 308 308 305 304 304 303 304 307 306 306 306 306 304 305 305 305 305 305 305 304 304 304 304 304 304 304 304 304 304 304 304 304 305 306 307 309 309 311 312 311 310 311 314 316 319 322 324 325 325 325 326 327 327 327 327 327 328 329 330 331 331 331 331 332 332
318 318 319 316 313 314 314 312 311 312 310 309 310 310 308 307 307 305 305 306 305 304 305 306 304 304 304 304 303 304 304 305 306 306 305 304 305 305 305 305 305 305 304 304 304 304 304 304 304 304 304 304 304 304 304 305 306 307 307 308 309 309 307 308 310 313 315 318 321 324 325 324 325 326 326 327 327 327 327 327 328 329 331 332 332 333 332
318 315 315 315 313 314 314 312 311 312 309 306 307 308 306 306 307 306 306 306 306 305 305 305 305 304 304 304 304 304 303 303 304 305 304 304 304 305 305 305 305 305 305 304 304 304 304 304 303 303 303 304 304 304 304 304 305 306 306 306 307 307 306 306 308 311 313 315 318 321 324 325 325 324 325 325 326 327 326 326 326 327 329 330 332 333 334
315 312 313 312 308 308 310 310 309 309 307 305 306 307 306 308 309 310 310 309 307 305 305 305 305 304 303 303 304 303 302 302 302 302 303 303 303 304 304 305 306 305 305 305 304 304 304 304 303 303 303 303 303 303 304 304 304 305 305 305 305 305 305 305 306 308 310 313 315 318 322 324 325 325 325 324 324 326 326 326 325 326 327 329 331 333 333
312 311 312 311 307 307 309 309 309 310 308 307 307 306 307 311 313 313 313 310 307 306 307 305 304 305 304 303 303 302 301 301 301 302 302 303 303 303 304 305 305 305 305 305 304 304 304 303 303 303 303 302 303 303 303 304 304 304 304 304 304 304 304 305 306 306 308 311 313 316 319 322 323 325 325 325 325 325 325 325 325 325 327 328 329 330 331
312 313 314 312 311 312 312 311 312 313 311 311 311 310 309 313 314 313 313 310 307 308 308 304 302 304 305 303 303 303 302 302 302 302 303 302 302 303 303 304 305 305 304 304 304 304 303 303 303 303 303 302 302 303 303 304 304 304 304 303 303 303 303 304 306 306 307 309 312 314 316 318 320 322 323 324 325 326 325 325 324 324 325 326 326 326 328
313 315 315 314 314 315 314 313 314 314 313 313 314 313 313 315 314 312 313 312 310 309 307 303 302 304 304 304 304 304 303 303 303 302 302 302 302 303 303 303 304 304 304 304 304 303 303 303 302 302 302 302 302 302 302 303 304 304 304 303 303 303 303 304 304 305 306 308 309 310 311 313 315 317 319 320 322 323 324 324 324 323 323 323 323 324 326
314 315 314 315 316 315 314 313 314 313 313 313 314 314 313 313 312 311 312 311 309 307 305 304 303 304 304 304 304 304 303 303 302 302 302 302 302 302 303 303 303 304 304 304 303 303 303 302 302 302 303 302 302 302 302 302 303 303 303 303 303 303 303 303 303 303 304 305 306 307 308 309 310 311 313 314 316 318 320 322 323 324 324 323 323 325 327
315 313 311 312 313 313 311 311 311 312 313 312 311 310 308 307 308 308 309 308 306 305 305 305 305 305 304 304 304 303 303 302 302 301 301 301 301 302 302 302 303 303 304 303 303 303 303 302 302 302 302 302 302 302 302 302 302 302 302 302 302 302 302 302 302 303 303 303 303 304 305 306 307 308 309 310 312 314 316 317 319 321 322 323 324 326 327
313 311 308 309 310 309 308 310 312 313 313 312 309 306 304 305 307 307 307 307 306 306 306 306 306 305 305 304 304 303 302 302 302 301 300 301 301 302 302 302 302 303 303 303 303 303 303 303 303 303 303 302 302 302 302 302 301 301 301 301 302 302 302 302 302 302 302 302 302 303 303 304 305 305 306 307 309 310 312 313 314 316 317 319 321 323 324
309 308 306 306 306 306 307 309 311 312 313 314 312 308 306 306 307 307 307 307 307 307 307 307 306 306 305 304 304 303 302 302 302 301 301 301 301 301 302 302 302 302 302 303 303 303 303 303 303 303 302 302 302 302 302 302 301 301 301 301 301 301 301 301 301 302 302 302 302 302 302 303 303 304 304 305 306 307 308 309 310 311 312 314 315 317 318
306 308 307 306 305 306 306 307 308 308 309 310 310 308 307 307 308 308 308 307 307 307 307 307 306 306 305 304 304 303 302 302 302 302 301 301 301 301 301 301 301 301 301 302 302 303 304 303 303 302 302 302 302 302 302 302 301 301 301 300 300 300 301 301 301 301 301 301 301 301 301 302 302 303 303 303 304 304 305 305 306 308 309 310 311 312 312
304 306 306 305 305 306 306 307 307 307 307 307 307 307 307 307 308 308 308 307 307 307 307 306 306 306 305 304 304 303 303 303 303 302 302 301 301 301 301 301 300 300 300 300 301 303 304 304 303 302 302 302 302 302 302 302 302 301 301 300 300 300 300 300 300 300 300 300 301 301 301 301 301 302 302 302 302 303 303 303 304 305 306 307 308 309 309
304 304 305 306 306 306 307 308 308 308 308 307 307 307 307 307 308 308 308 307 307 307 306 306 306 306 305 305 304 303 303 303 302 302 302 301 301 301 301 300 300 300 300 300 301 303 304 304 303 303 303 303 303 302 302 301 301 301 301 301 300 300 299 300 300 300 300 300 300 300 300 300 301 301 301 301 302 302 302 303 303 304 304 305 306 307 307
305 304 304 305 305 305 306 307 308 308 308 307 307 307 307 308 307 307 307 307 307 306 306 306 306 306 305 304 304 303 303 302 302 302 301 301 301 301 301 300 300 300 301 301 302 303 304 304 304 304 304 304 304 303 302 301 301 301 301 300 300 300 299 299 299 299 299 299 299 300 300 300 300 300 300 301 301 301 302 302 303 303 304 304 304 304 304
306 303 304 305 305 304 306 307 307 308 308 307 307 307 307 307 307 306 306 306 306 306 306 306 306 305 304 304 304 304 303 302 302 301 301 301 301 300 300 300 300 301 302 302 302 302 303 304 304 304 304 303 303 303 303 302 301 300 300 300 300 299 299 299 299 299 299 299 299 299 299 299 299 299 300 300 300 301 301 301 302 302 303 303 303 303 304
304 303 304 305 304 304 305 305 306 307 307 307 307 307 307 307 307 306 306 306 306 306 306 306 305 305 304 304 304 304 303 302 301 301 301 300 300 299 298 298 299 300 301 302 302 302 302 303 303 303 303 303 302 303 303 302 301 300 300 300 299 299 299 299 299 299 299 299 299 299 299 299 299 299 299 299 300 300 300 301 301 301 302 302 302 302 303
304 304 304 304 304 304 304 304 305 307 307 307 307 307 307 306 306 305 305 305 305 305 305 305 305 305 305 305 304 304 304 303 302 301 300 300 299 298 297 298 299 300 301 302 302 301 301 301 301 302 302 302 302 302 303 303 301 300 300 300 299 299 299 298 298 298 298 299 299 298 299 299 299 299 299 299 299 299 299 299 300 300 300 301 301 301 302
303 303 303 303 304 304 304 303 304 305 305 306 306 306 306 305 305 305 305 305 304 305 305 304 304 304 304 304 304 304 303 303 302 302 301 300 299 299 298 298 299 300 301 302 302 301 300 300 301 301 302 302 302 302 302 302 301 301 301 300 300 300 299 299 299 299 298 298 298 298 298 298 298 298 298 298 298 298 298 298 298 298 298 299 300 300 301
303 304 304 304 304 304 303 304 303 303 303 304 305 305 305 305 305 304 305 304 304 304 304 303 303 303 303 302 302 302 302 302 302 302 301 300 299 299 299 298 299 300 300 301 301 301 300 300 300 300 301 302 302 301 301 301 300 300 300 300 300 300 300 299 299 299 299 298 298 298 298 298 298 298 298 298 297 297 297 297 297 297 297 297 298 299 299
304 304 303 304 304 303 303 304 303 302 303 304 303 303 303 304 304 304 304 304 304 304 303 302 302 302 301 300 301 302 302 302 301 301 300 299 298 299 299 299 299 299 300 300 301 300 300 299 299 299 300 301 301 301 300 300 299 299 299 299 299 298 298 298 298 298 298 298 298 298 298 298 298 297 297 297 297 297 297 297 297 296 296 296 296 296 296
304 304 304 304 305 304 303 303 303 303 303 303 302 301 301 303 303 303 302 302 303 303 303 301 300 300 299 299 299 301 302 302 301 300 300 299 298 298 299 299 298 298 299 300 300 299 299 299 298 298 298 299 300 300 299 299 298 298 297 297 297 297 296 296 296 296 296 296 297 297 297 297 297 296 296 296 296 296 297 297 297 296 296 296 296 296 296
304 304 304 305 305 304 303 303 303 302 302 302 301 300 301 302 302 300 299 300 302 302 302 301 300 299 299 298 299 300 301 301 301 300 299 299 298 298 298 298 298 298 298 298 298 298 298 298 298 297 297 298 298 299 298 298 297 296 295 295 295 295 295 295 295 294 294 294 295 295 296 296 295 295 295 294 294 294 295 295 295 295 295 296 296 296 296
305 305 305 305 305 305 304 304 303 302 301 301 301 300 300 300 300 298 298 300 301 301 301 300 299 299 299 299 299 300 300 300 300 300 299 299 298 298 297 297 297 297 297 297 297 297 297 298 298 297 296 296 296 296 296 296 296 295 294 293 293 292 293 293 293 293 293 293 293 293 293 293 293 293 293 293 292 292 292 293 293 293 294 294 294 294 294
306 306 305 304 304 304 304 303 302 301 300 301 300 299 299 299 299 298 298 300 301 301 300 299 299 299 299 300 300 300 300 299 299 299 299 298 298 297 297 296 296 296 296 297 297 296 296 297 297 296 296 295 294 294 294 294 294 294 294 293 292 291 291 291 291 291 291 291 291 291 291 291 291 291 291 291 291 291 291 291 291 291 293 294 294 294 294
306 305 304 304 304 304 304 303 302 301 301 301 300 300 299 299 299 298 298 299 300 300 299 298 298 298 298 298 299 299 299 298 298 298 298 298 297 297 296 296 295 295 295 295 295 295 296 296 296 296 295 294 293 293 292 292 292 292 292 292 292 292 291 291 291 291 291 290 290 290 290 289 289 289 290 290 290 290 290 290 291 291 292 293 292 292 292
305 304 303 304 304 304 304 304 303 302 302 301 301 300 299 299 299 299 298 298 298 298 297 296 296 297 297 297 298 298 298 297 297 297 297 297 297 296 295 295 295 294 294 294 294 294 295 295 295 294 294 293 293 292 291 291 291 290 290 290 291 291 291 291 291 290 290 290 289 289 289 289 289 289 289 288 288 289 289 289 289 290 290 290 290 290 290
305 304 304 305 305 305 305 304 304 303 302 302 301 300 299 298 299 299 298 297 297 297 296 296 296 296 296 297 297 297 297 297 297 297 296 296 296 295 295 294 294 294 293 293 293 293 293 293 293 293 293 292 292 291 291 291 290 290 290 290 290 290 290 290 289 289 289 289 289 289 289 289 289 288 288 288 288 287 288 288 288 288 289 289 290 290 290
Wind_Speed
5 2 4 7 7 3 4 5 3 4 3 4 4 5 5 4 2 5 8 11 12 12 13 14 17 17 16 17 17 15 16 17 16 17 18 19 19 19 18 17 17 17 16 15 15 13 14 17 20 21 21 20 21 19 18 25 30 31 30 28 28 27 28 30 30 31 32 31 29 29 30 33 35 37 37 36 38 40 37 35 37 39 40 39 37 35 32
3 5 8 8 8 4 3 4 4 5 4 4 6 7 6 6 6 7 9 11 11 10 11 13 16 16 14 14 14 15 17 17 17 19 20 20 20 20 20 19 18 17 17 16 16 14 13 15 18 19 18 19 19 16 18 22 25 29 29 28 28 28 28 29 30 30 30 29 28 28 29 31 34 35 36 35 35 38 40 38 35 35 37 37 36 35 34
3 6 7 6 7 6 4 2 4 3 2 4 4 4 4 3 4 7 7 8 9 8 10 14 14 15 15 14 16 18 18 17 18 21 21 20 19 20 21 20 19 18 18 17 16 15 13 14 17 18 17 17 17 14 18 21 21 24 27 28 28 29 31 31 30 30 29 29 29 29 30 32 33 33 34 34 34 35 37 37 33 29 28 30 33 36 37
4 5 9 6 3 2 3 4 6 7 5 4 4 4 3 2 3 7 8 8 9 9 12 14 14 15 17 17 17 17 16 16 19 20 20 20 20 20 21 21 20 21 20 19 17 15 13 15 17 17 16 15 15 14 17 20 19 21 25 27 27 27 27 27 29 30 30 29 29 31 33 34 34 34 33 33 33 31 33 36 35 31 29 29 30 33 36
5 2 8 7 1 2 2 2 5 6 5 4 4 5 3 3 2 5 8 8 9 11 12 14 16 17 16 16 15 14 14 17 19 19 19 20 21 21 21 22 22 21 19 18 17 13 11 14 17 17 16 15 14 15 19 20 20 21 24 26 27 26 23 22 26 29 30 31 31 32 34 36 36 35 33 33 33 30 31 36 35 32 33 33 32 32 34
4 1 7 4 0 1 3 3 0 3 5 3 5 7 4 4 3 2 4 8 10 11 11 12 17 17 15 14 15 12 12 15 17 19 20 21 21 22 21 21 21 19 18 16 13 10 11 15 16 16 18 16 13 13 17 20 22 24 25 25 27 27 26 25 25 26 27 28 30 32 35 38 38 37 36 35 33 31 31 33 33 32 33 34 33 34 35
2 2 4 1 2 2 4 4 3 3 4 3 3 6 5 5 3 5 6 9 11 11 10 11 14 16 16 15 13 11 13 15 16 19 20 20 21 21 21 20 20 20 19 16 9 7 10 13 15 15 16 16 13 12 14 19 20 22 23 23 24 24 24 25 25 24 25 25 25 27 31 34 35 35 34 33 32 32 32 33 34 34 34 33 32 33 33
1 2 2 1 2 1 2 3 2 3 3 1 3 4 3 4 4 8 9 10 11 10 10 11 12 15 17 13 8 9 16 19 18 18 18 19 20 20 19 19 20 20 20 19 12 7 10 11 13 15 14 14 12 11 11 16 17 17 18 19 20 20 20 22 23 24 24 23 22 24 28 31 31 30 30 30 30 31 31 32 33 31 30 30 29 30 32
1 1 1 2 3 3 3 4 4 2 3 3 1 1 5 5 6 9 8 10 12 10 9 11 13 14 14 10 7 13 19 20 19 18 18 19 19 19 20 22 24 25 26 26 21 9 10 11 11 12 11 11 9 7 8 11 13 14 16 17 20 20 20 22 24 25 25 23 21 21 23 26 27 26 27 30 32 32 30 30 30 28 28 30 31 31 30
1 1 1 1 2 3 4 5 7 4 4 5 4 2 3 6 7 8 8 9 12 11 10 12 13 12 12 10 11 15 19 20 20 19 19 19 19 21 22 23 27 30 29 27 23 13 4 5 6 8 9 9 6 4 9 13 16 18 21 22 24 24 25 26 26 26 27 28 25 22 21 22 23 23 23 23 26 28 28 28 29 31 33 34 34 33 31
2 2 1 1 2 4 6 6 8 6 4 5 2 3 2 6 8 8 7 9 11 9 9 12 11 9 10 10 10 14 18 19 19 18 18 18 21 26 27 24 25 27 27 26 25 23 20 16 11 5 8 8 5 6 13 17 19 20 21 24 25 25 26 27 27 29 28 27 28 28 28 28 27 27 25 22 23 25 25 26 29 32 35 34 32 32 34
1 1 1 2 2 4 6 6 7 7 4 0 4 4 3 6 8 8 7 9 10 7 7 9 8 7 7 8 10 14 16 18 18 18 19 18 19 24 27 28 29 28 26 25 23 24 26 26 23 13 3 10 8 9 16 18 18 18 20 24 25 24 24 24 25 29 30 26 25 28 30 32 31 28 25 25 27 28 28 30 31 30 29 29 29 32 37
2 1 1 3 2 4 5 5 5 4 2 4 5 4 5 7 8 8 7 8 9 7 6 7 6 6 7 8 11 13 15 18 19 20 23 24 24 25 26 28 30 27 24 22 22 27 30 29 29 22 4 8 10 10 16 16 16 19 22 24 23 21 20 20 23 28 30 29 28 28 28 30 30 28 26 25 27 27 28 30 31 27 26 27 31 35 39
2 1 1 2 2 4 4 3 2 3 5 2 2 3 5 6 7 8 7 8 7 6 5 5 5 7 9 10 11 13 16 18 18 19 22 24 27 30 32 32 32 28 25 25 28 31 31 29 29 28 19 10 7 6 8 5 4 14 21 23 23 19 14 17 24 28 28 29 29 28 28 28 28 29 28 27 27 26 26 27 28 28 27 29 31 34 35
1 1 1 1 1 4 3 1 3 3 2 3 5 3 4 5 6 6 6 6 7 6 5 6 6 7 10 11 11 12 15 17 17 18 20 20 21 26 30 32 34 30 24 24 27 28 28 28 30 31 28 23 19 17 15 15 7 9 18 19 20 20 17 21 27 27 26 27 27 26 28 29 28 27 26 26 28 28 28 27 26 26 26 27 27 28 28
1 1 2 1 3 5 3 2 1 2 4 5 5 3 3 5 5 4 4 5 7 6 4 6 7 7 9 11 12 12 14 16 16 17 19 20 21 24 26 29 33 30 25 25 26 25 26 29 30 31 28 24 22 22 21 21 14 1 11 14 14 20 25 28 29 26 23 25 25 24 25 26 27 27 26 26 26 27 28 28 26 23 23 24 24 23 22
2 3 4 4 4 5 3 3 4 5 5 4 5 5 2 4 4 3 4 5 8 7 4 5 6 6 7 9 10 11 12 15 16 17 18 20 22 24 26 30 33 30 26 25 24 23 25 30 30 30 29 26 24 24 24 24 22 12 1 8 14 18 25 27 27 25 22 21 24 25 24 22 22 24 27 27 27 25 25 26 24 23 22 23 22 21 21
1 2 2 2 2 4 4 3 4 4 3 3 3 3 1 4 4 4 4 5 7 7 5 4 5 6 6 7 9 9 10 12 15 16 18 22 25 27 27 30 33 30 24 23 22 23 27 30 29 28 29 28 24 23 25 27 28 22 14 7 11 6 11 18 21 23 22 21 23 26 28 26 22 19 20 23 24 25 26 26 24 23 22 23 23 22 21
1 1 3 3 3 5 5 3 3 2 3 3 2 2 2 5 4 4 5 6 6 6 5 5 5 6 6 6 8 8 8 11 14 15 15 19 24 26 25 27 29 27 24 24 24 25 26 27 27 26 28 28 26 27 28 29 28 27 23 16 13 13 11 9 13 19 20 21 21 24 27 29 28 24 22 22 20 19 22 23 23 22 22 22 22 22 22
1 3 6 5 5 6 4 2 3 2 3 4 2 2 4 4 3 4 5 5 5 5 6 6 5 6 6 6 7 7 7 8 11 13 14 18 22 25 26 28 28 26 25 24 25 25 25 25 26 25 26 29 30 30 31 30 28 27 25 21 20 21 18 13 8 8 11 14 16 19 21 22 20 18 20 22 22 21 24 25 25 24 23 23 23 23 24
1 3 5 4 5 6 6 3 3 4 4 3 2 3 4 3 4 5 6 6 5 5 6 6 5 5 6 6 6 7 6 7 8 12 16 19 22 24 26 28 29 27 25 24 24 25 25 25 25 25 25 29 32 31 30 29 27 25 24 23 23 23 21 18 15 9 5 5 6 9 12 12 10 7 8 12 15 17 21 24 24 24 24 24 25 25 26
2 3 4 3 1 4 6 4 5 6 5 4 2 2 4 4 4 4 5 7 7 6 7 7 5 5 6 6 6 6 6 6 8 13 18 20 22 24 25 27 28 27 26 25 24 24 25 25 26 26 25 28 32 32 29 27 26 24 22 22 21 22 22 21 19 15 9 5 4 3 4 6 6 5 5 8 10 12 14 16 18 19 21 24 26 26 26
4 6 6 5 3 3 6 5 5 6 5 4 4 0 2 3 4 3 4 6 7 6 7 8 7 5 6 7 7 6 6 8 10 14 18 20 21 23 24 25 26 26 27 26 25 24 25 26 26 26 26 27 30 31 29 27 25 22 21 20 19 18 20 20 20 18 14 8 4 2 2 3 4 5 6 7 9 12 14 16 17 17 18 21 23 24 24
4 6 6 5 4 4 6 6 6 6 5 5 4 1 1 3 3 3 4 6 6 4 5 8 9 8 7 8 8 7 7 10 13 15 17 20 21 22 23 24 25 26 25 25 24 24 24 25 25 25 26 28 29 30 28 26 24 22 20 19 17 16 18 20 19 18 17 13 8 4 2 4 6 8 8 7 7 8 11 15 18 19 19 20 22 23 24
3 6 5 4 4 4 4 3 3 4 4 4 4 2 2 4 4 4 4 6 7 6 4 5 8 10 10 10 11 9 8 11 14 16 17 18 21 23 24 25 25 25 25 24 23 23 23 23 22 23 25 27 29 30 28 26 24 22 21 19 17 16 19 20 19 18 18 17 14 9 4 4 6 8 9 8 8 8 9 11 13 15 17 18 20 22 24
4 5 2 1 2 3 2 2 1 2 3 4 4 2 2 5 6 6 6 7 9 9 6 4 7 11 12 11 12 13 11 11 14 16 17 17 19 21 24 25 25 25 25 25 25 25 24 23 22 23 25 27 29 29 28 26 24 22 21 20 17 17 18 18 17 16 16 17 16 13 8 5 5 6 7 8 9 8 9 9 11 12 14 15 17 20 22
3 2 2 4 5 5 3 1 3 5 4 4 5 4 4 7 9 8 9 11 13 14 11 7 7 10 13 13 13 14 13 12 13 15 17 17 18 20 23 25 26 25 25 25 26 26 25 24 24 25 26 28 29 29 28 27 24 22 21 20 18 18 18 18 17 15 14 14 15 14 12 9 8 8 8 8 9 9 10 11 12 13 14 14 15 16 18
1 0 3 4 1 4 4 2 3 4 4 4 6 5 6 8 9 8 8 9 11 13 13 12 9 8 10 12 12 12 12 12 12 14 16 18 20 22 23 26 27 25 24 25 26 27 26 26 26 27 28 29 30 29 28 26 23 22 21 20 18 18 18 19 18 16 13 13 14 15 13 11 8 8 9 9 9 10 11 11 11 13 15 16 16 15 17
2 2 3 3 4 4 1 2 3 3 2 2 4 5 6 6 6 6 5 6 7 8 10 12 10 8 9 11 12 11 10 10 11 13 16 19 22 22 23 24 25 25 24 25 27 27 28 28 27 27 29 30 30 29 28 26 23 21 21 19 18 19 20 20 19 17 13 12 13 14 14 12 9 7 7 8 8 8 8 9 9 11 14 16 15 15 17
1 3 4 3 3 3 4 3 2 2 1 2 3 4 4 5 5 4 5 5 5 6 9 11 10 8 8 10 11 11 11 11 12 14 17 20 22 22 22 23 23 23 24 26 28 28 28 27 27 28 29 30 29 28 28 27 23 21 21 20 19 21 22 21 19 18 16 15 15 15 14 13 12 10 7 8 9 9 9 9 9 11 14 15 15 16 18
2 4 5 5 6 6 5 1 1 1 1 1 3 4 4 5 5 4 5 5 4 6 9 11 10 8 8 9 10 12 13 14 14 15 17 20 22 22 22 22 20 19 20 23 26 27 27 26 27 28 29 30 29 28 28 27 25 23 23 22 21 23 24 23 22 21 20 18 18 17 16 15 15 14 12 10 9 8 9 9 10 12 14 14 15 18 21
5 6 6 5 5 5 3 2 2 3 3 2 4 4 3 4 4 2 3 4 4 6 9 10 9 9 8 7 10 12 13 15 15 15 17 21 22 22 22 22 21 20 22 24 25 26 26 27 28 29 30 30 30 29 29 28 26 25 25 24 23 23 25 26 25 23 22 22 21 21 20 18 16 15 14 14 13 11 10 9 11 13 15 15 18 21 23
6 4 3 3 3 3 4 3 1 2 2 1 3 4 4 5 4 2 2 4 6 7 9 10 11 11 8 7 8 10 12 13 13 14 16 19 22 23 23 22 22 22 24 25 26 26 26 27 28 29 31 31 31 31 30 29 27 26 26 25 25 25 25 27 26 25 25 25 24 23 22 21 19 18 17 16 15 14 13 12 11 12 14 16 20 23 23
6 4 3 3 3 2 1 0 1 1 2 3 3 3 4 5 3 2 4 6 6 7 9 10 12 13 11 8 7 9 11 10 8 10 14 17 20 22 23 23 23 22 23 25 26 26 26 28 29 30 30 31 31 32 32 30 29 28 27 27 27 27 26 26 27 27 27 26 25 24 24 23 22 22 20 18 18 16 15 14 13 12 11 12 14 17 18
6 3 1 1 2 4 5 4 3 3 4 5 4 4 4 4 3 3 5 7 7 8 9 11 12 14 15 11 7 8 10 9 7 9 13 16 19 21 22 23 23 22 22 24 26 25 25 27 29 29 30 31 31 32 32 31 30 29 29 28 28 28 27 27 28 27 27 26 26 26 26 24 23 23 22 20 19 18 17 16 15 14 13 12 11 10 11
6 4 4 4 2 4 6 7 7 7 6 5 4 4 3 3 3 3 5 7 9 10 11 13 13 14 14 11 6 6 8 9 9 10 12 14 18 21 21 21 21 20 19 21 24 25 23 25 28 29 30 31 31 31 31 31 30 30 30 29 29 28 28 28 29 28 28 28 27 27 27 25 25 25 24 23 22 21 20 19 17 16 14 13 13 12 12
6 7 5 2 1 3 6 8 10 10 9 7 5 4 4 3 2 2 4 7 9 10 11 13 13 12 12 9 7 8 8 9 10 10 10 12 16 20 20 19 19 18 16 17 22 23 21 21 25 29 30 31 32 32 31 30 30 30 30 30 30 29 28 28 29 29 29 29 28 28 28 27 26 26 26 24 23 23 22 21 20 18 17 15 14 12 11
6 7 6 2 2 4 6 8 10 12 10 8 6 6 6 5 4 4 5 7 7 8 10 12 12 13 13 11 10 10 10 10 10 11 11 11 14 18 18 17 17 17 15 16 20 23 21 18 20 23 26 28 30 31 31 30 30 30 30 30 30 30 29 28 28 28 28 29 28 28 28 27 26 26 26 25 25 24 24 23 22 21 20 18 17 16 15
6 6 5 2 2 3 5 7 9 10 9 8 7 6 6 7 8 8 9 8 8 8 11 13 14 15 15 12 9 8 8 9 10 11 11 12 14 16 17 18 18 17 17 18 21 22 20 18 17 17 18 20 23 26 27 29 30 30 29 29 29 29 29 28 28 28 28 29 29 28 28 27 27 26 26 27 27 26 26 26 25 23 21 21 20 20 20
5 5 6 4 2 2 4 7 10 9 8 8 7 6 6 7 8 9 10 10 9 9 10 12 13 13 12 11 9 7 6 8 11 12 12 13 16 16 16 17 19 18 16 18 22 23 21 19 18 17 16 17 17 19 21 24 26 28 28 27 27 27 28 28 29 29 28 29 29 28 27 27 27 27 28 28 28 28 28 27 27 25 24 24 24 24 24
7 7 8 7 5 3 3 5 8 10 8 8 7 7 6 7 7 7 8 8 8 8 8 9 10 11 11 10 10 9 7 8 12 15 16 17 17 14 12 13 17 17 15 16 20 22 22 21 19 17 17 16 16 16 17 19 23 25 27 27 27 27 26 27 28 28 27 27 28 27 27 27 27 28 28 27 28 28 28 28 28 28 27 27 27 27 26
8 9 10 9 7 6 5 4 6 8 7 6 7 8 8 7 7 7 7 5 5 4 5 7 8 9 9 9 11 11 10 9 11 14 16 17 17 13 10 11 14 16 14 14 17 21 23 23 22 18 16 16 16 15 16 17 20 22 24 25 26 27 27 27 27 27 27 27 27 28 28 28 28 28 28 28 28 28 29 28 29 29 29 29 29 29 28
9 10 10 9 7 6 6 6 7 5 4 5 7 10 9 8 7 8 8 6 4 4 4 5 7 8 9 10 11 12 12 11 11 11 13 15 17 15 12 12 14 16 14 14 16 19 21 23 23 20 17 16 16 16 16 17 18 20 21 22 23 24 24 25 25 26 27 27 27 27 27 27 26 26 27 27 28 29 29 29 29 30 30 31 31 31 31
13 12 11 10 9 7 7 7 6 3 1 4 7 8 8 9 9 9 9 8 6 5 5 5 7 8 9 11 12 11 12 12 12 11 12 13 15 14 13 13 14 16 15 14 15 17 19 21 22 20 18 16 16 16 17 18 18 19 19 20 21 21 22 22 23 24 24 25 25 25 26 26 26 26 26 26 27 29 29 30 30 31 31 32 33 33 33
14 13 12 11 10 9 8 7 5 2 3 6 8 6 6 9 10 8 8 8 7 6 7 7 7 7 7 9 10 10 11 11 13 13 11 10 9 10 10 10 12 13 13 14 15 16 17 18 19 20 19 18 17 17 18 18 19 19 19 19 20 21 21 22 22 22 22 22 22 22 23 24 24 25 26 26 26 27 28 29 30 31 31 32 32 32 31
15 15 14 12 10 9 8 7 6 4 6 9 8 4 4 7 9 6 4 4 6 8 10 8 7 6 6 7 8 9 10 10 11 11 11 9 8 9 9 8 8 10 11 12 14 15 15 15 16 18 19 18 18 18 19 20 19 20 20 20 20 20 21 21 22 22 21 22 22 21 22 22 23 23 24 24 25 26 26 28 29 30 30 30 31 31 31
14 14 14 14 13 12 9 7 7 6 7 9 7 5 6 8 9 7 5 4 5 11 12 9 6 5 4 5 7 8 9 9 9 9 9 9 9 10 9 8 7 8 8 10 13 14 13 13 13 15 16 17 17 17 18 19 19 20 20 20 20 20 20 20 20 20 21 21 21 21 21 22 22 22 23 24 24 25 25 26 27 28 28 29 29 30 31
17 15 14 15 16 15 12 9 7 7 9 10 9 8 10 11 10 8 7 7 9 13 12 8 6 6 6 4 6 7 6 6 6 7 7 6 7 9 10 10 9 7 6 8 11 12 12 11 11 12 14 16 16 16 16 17 18 18 19 20 20 20 20 19 19 19 19 20 21 21 21 22 22 22 23 24 24 24 25 25 26 26 27 27 28 28 29
20 19 16 15 15 15 13 10 7 9 12 13 12 11 12 12 10 9 8 9 12 13 12 9 8 8 6 5 6 6 5 5 6 6 6 5 6 7 9 11 10 9 8 8 10 11 11 11 11 11 12 14 15 15 15 15 15 16 17 18 18 19 19 18 18 18 19 19 19 20 20 21 21 21 22 22 23 23 24 24 24 24 24 24 26 27 27
16 16 16 15 14 13 13 12 10 11 15 16 13 12 13 13 11 10 10 12 14 14 13 12 11 10 9 7 7 7 6 5 6 6 5 5 5 6 7 9 10 10 10 10 11 11 10 10 10 10 11 12 13 14 14 14 14 15 15 15 16 16 17 17 16 17 17 18 18 19 19 19 19 20 21 21 22 22 23 23 23 23 22 22 23 24 25
16 16 17 16 15 15 18 19 17 16 17 17 16 14 14 14 13 12 13 14 16 16 15 13 12 11 10 9 8 6 5 4 4 4 4 4 4 5 6 7 8 9 10 11 12 12 11 10 9 10 10 10 11 12 13 13 14 14 15 15 16 16 16 16 16 16 16 16 17 17 17 18 18 19 20 20 21 21 22 22 22 23 22 22 22 22 22
20 22 21 19 17 18 21 23 21 18 18 18 18 17 16 15 14 15 15 14 14 15 16 15 13 11 10 9 8 7 5 4 4 4 4 4 4 4 5 6 7 8 9 11 11 12 11 10 9 9 8 9 9 10 11 11 13 14 15 16 16 17 17 17 16 16 16 16 16 16 16 17 17 18 18 19 19 20 20 21 22 22 22 22 22 21 21
Wind_Direction
259 181 109 107 111 131 182 181 208 231 207 156 178 235 230 192 215 272 296 314 310 304 311 317 319 322 320 315 314 317 318 316 315 316 316 314 313 313 309 304 303 302 299 294 290 284 278 278 278 277 273 271 281 276 237 208 201 200 198 197 197 198 198 201 203 205 206 207 207 206 205 206 209 212 213 212 213 213 212 213 213 209 208 210 210 207 208
291 125 128 131 127 133 178 199 227 225 214 215 223 238 227 194 216 258 286 301 299 299 308 313 317 318 315 311 313 319 321 319 321 322 320 319 318 315 310 306 303 299 294 290 285 279 275 271 269 271 267 267 276 260 218 202 197 194 194 195 196 197 199 201 203 203 204 205 204 203 203 206 210 213 213 211 211 213 213 215 215 211 208 207 206 207 208
297 142 139 140 137 137 141 183 261 261 297 295 262 254 246 213 248 274 285 299 300 306 316 316 317 320 321 320 322 324 324 324 326 324 320 318 313 309 307 305 303 299 295 290 281 273 266 259 260 262 257 261 272 251 210 199 193 186 186 190 193 197 200 200 200 199 200 202 201 200 200 205 211 215 216 213 210 210 211 213 215 213 211 208 204 205 208
295 169 153 162 169 121 79 39 354 348 349 323 285 280 266 204 266 307 326 331 322 319 321 320 321 326 328 326 326 324 321 324 326 322 318 316 313 311 310 308 304 301 298 294 284 271 257 249 249 250 249 256 264 242 208 197 191 184 183 186 192 199 202 200 198 198 198 199 198 198 198 203 210 216 218 217 214 208 207 213 215 212 213 216 212 208 208
301 193 147 159 170 16 353 345 358 344 315 286 296 307 280 214 255 341 345 326 311 312 317 321 326 330 332 328 323 320 319 324 325 320 319 321 319 316 313 309 306 302 300 296 286 267 244 238 239 239 242 251 255 233 210 196 188 184 185 188 194 202 207 207 205 203 201 200 199 197 197 200 207 212 216 219 218 211 207 213 216 211 211 217 218 215 213
303 87 119 133 175 341 266 240 154 322 289 282 312 307 266 224 248 318 298 287 296 307 317 326 327 327 329 323 314 314 322 325 324 323 326 324 318 315 313 309 308 308 308 305 291 257 231 229 233 235 236 242 254 241 213 195 185 183 186 190 196 204 211 215 215 211 207 205 204 200 199 201 204 207 211 216 218 214 209 210 213 213 214 215 216 218 218
287 98 97 54 257 206 227 227 209 255 251 221 292 293 238 205 269 318 312 302 304 310 318 326 323 321 323 319 309 315 328 331 330 329 327 323 318 317 315 313 316 320 321 320 308 248 228 228 227 231 233 236 251 249 214 192 186 186 188 193 201 207 211 215 217 215 213 212 211 206 202 202 204 206 207 210 214 214 211 208 209 212 216 217 216 218 219
345 39 53 299 272 242 275 284 265 265 274 331 7 333 253 223 310 337 329 309 306 313 322 326 324 320 318 311 303 328 338 338 336 330 323 320 319 318 318 319 321 323 325 330 327 261 232 234 226 225 228 232 249 259 222 196 191 191 189 195 205 209 211 214 213 210 208 209 212 211 205 203 205 207 205 207 210 211 209 209 211 211 214 219 221 221 220
47 22 263 267 298 302 316 319 298 282 296 290 308 310 266 267 327 340 322 310 315 322 326 328 325 320 318 320 333 345 344 338 331 326 322 321 321 323 325 324 325 330 335 340 339 305 239 230 222 222 232 237 252 269 232 198 183 179 182 195 208 212 211 209 204 198 196 197 205 212 208 203 203 204 206 208 209 208 207 207 209 211 214 221 226 226 222
55 57 348 336 309 275 264 273 274 269 262 243 198 150 270 286 328 332 314 314 320 324 330 332 328 326 334 344 343 341 340 334 329 329 328 326 327 329 329 329 332 336 337 341 350 355 322 255 236 230 242 252 251 212 187 178 172 176 185 197 208 211 210 205 197 191 190 190 195 206 209 205 202 203 207 207 202 202 204 203 203 207 211 215 220 221 221
25 61 355 278 208 241 253 258 270 280 266 239 165 91 282 287 316 323 314 318 321 323 331 332 333 339 344 343 334 331 331 329 328 331 331 332 333 332 333 336 337 336 337 345 3 21 24 8 348 296 242 254 263 194 175 173 177 185 191 198 205 211 212 208 200 196 197 195 192 195 198 198 200 206 210 206 197 197 201 203 206 210 210 210 210 211 216
331 56 322 270 208 244 262 256 266 279 267 261 40 27 307 300 319 316 314 325 323 319 326 330 340 349 337 325 320 321 322 325 330 336 337 335 333 332 336 342 342 344 348 351 4 23 21 8 2 3 251 235 242 198 177 175 183 193 198 203 209 213 214 215 210 205 206 205 198 193 193 193 196 204 209 206 202 202 202 204 209 214 215 213 210 210 213
336 57 304 287 255 250 259 250 263 297 14 44 24 343 288 299 314 307 313 328 321 314 324 331 335 330 312 304 309 316 324 331 336 340 340 339 338 338 342 347 349 352 352 352 8 24 19 9 10 20 43 217 229 197 176 175 188 197 199 206 215 216 213 218 218 209 202 201 199 196 194 192 194 198 203 203 204 206 205 205 209 213 216 216 217 220 221
329 183 231 294 286 256 248 239 280 14 51 35 293 265 264 285 299 303 316 325 313 305 312 313 307 306 308 311 318 326 334 337 338 340 343 344 344 344 347 352 355 355 353 359 14 20 16 12 17 28 44 56 47 82 105 94 205 208 205 207 211 213 217 226 223 210 197 192 192 192 191 189 190 193 197 200 202 206 207 209 211 212 213 214 218 224 228
22 9 316 349 286 262 265 344 356 24 92 211 237 246 273 280 285 301 316 317 307 304 300 296 295 301 313 322 329 332 335 338 340 342 345 348 347 347 349 352 354 354 355 5 13 12 11 16 22 28 37 43 45 48 39 19 358 228 225 225 212 202 211 224 221 211 198 190 188 189 191 191 191 192 194 195 197 200 203 206 211 213 212 211 214 222 228
110 41 290 244 226 248 239 128 139 230 212 208 195 190 265 284 287 309 322 311 308 310 299 294 301 309 318 327 332 335 338 341 344 344 346 349 350 350 351 352 353 355 359 5 6 5 11 19 24 27 29 33 37 31 14 7 16 210 235 259 246 213 208 213 214 210 202 191 185 188 194 195 193 193 195 195 195 197 198 200 206 213 215 213 213 217 221
184 175 215 225 233 252 243 164 181 216 241 238 189 180 261 290 282 307 330 313 311 319 307 294 304 312 315 322 329 332 336 340 344 346 347 351 352 352 353 355 356 358 2 3 358 359 11 19 23 24 24 27 29 18 5 10 25 45 93 293 279 228 200 195 198 201 199 188 182 188 199 203 198 195 195 194 193 194 195 199 203 208 212 214 213 214 215
200 179 229 255 282 285 275 240 204 205 234 243 189 157 314 292 280 303 321 307 310 323 317 300 308 313 310 316 324 327 331 338 345 348 349 352 354 355 356 358 357 356 359 3 0 3 11 16 18 19 20 23 22 11 6 17 28 42 60 16 317 268 169 163 171 177 180 178 176 181 190 198 201 200 199 197 195 192 192 197 203 205 206 208 209 210 211
95 255 270 280 279 262 250 231 212 224 271 262 200 158 245 272 288 307 306 304 317 330 325 312 311 310 306 312 319 322 331 340 344 349 351 351 353 354 356 358 357 357 2 7 7 8 10 10 11 13 14 16 17 14 15 21 29 41 55 50 21 26 57 105 143 157 165 168 169 173 181 190 197 202 205 206 203 198 194 196 202 205 205 206 206 205 208
159 235 252 256 260 259 250 208 185 203 264 275 264 233 249 273 322 321 305 313 332 338 333 324 317 313 308 308 314 318 330 339 342 348 350 350 351 353 355 358 1 4 7 8 9 11 11 8 9 10 9 10 13 16 19 22 26 34 40 41 39 40 42 50 79 126 149 156 163 168 172 179 187 194 201 203 202 204 206 206 206 205 205 206 206 206 208
316 282 279 294 311 311 310 290 229 212 217 228 272 302 290 324 358 337 323 330 336 340 339 330 324 322 312 299 300 311 323 334 340 345 348 349 352 354 357 360 3 6 7 7 9 11 11 9 10 11 8 9 12 16 19 21 24 27 27 28 32 35 36 40 42 46 75 111 140 159 164 167 166 170 195 203 204 211 216 216 214 212 212 212 212 213 214
295 266 259 255 280 298 290 264 229 223 211 175 118 340 328 350 350 327 331 340 341 347 350 343 338 325 308 300 302 307 316 325 331 340 346 349 352 355 358 1 4 6 7 7 8 10 10 10 12 13 9 7 11 14 16 19 21 22 23 25 26 24 23 27 28 29 40 66 89 110 141 158 156 159 199 218 219 223 226 226 225 224 222 223 223 222 222
226 235 239 222 198 256 263 239 219 224 208 142 112 356 319 340 324 315 346 353 348 348 349 352 357 338 306 307 311 308 316 324 328 338 345 348 351 354 357 1 4 5 5 6 8 9 8 8 11 14 10 7 8 10 13 17 19 20 21 24 24 18 14 15 17 21 29 42 72 116 172 190 182 181 189 203 218 229 235 238 240 240 236 233 232 231 230
219 241 240 216 202 241 241 216 209 216 193 133 109 95 2 358 332 335 4 0 357 354 339 345 359 0 342 333 327 311 310 322 329 336 343 348 353 355 357 2 4 3 3 5 7 7 7 8 11 12 11 9 8 8 10 14 17 18 20 23 22 15 10 10 13 17 22 23 22 3 268 228 213 206 195 183 192 221 239 244 245 247 247 243 240 239 239
207 242 240 214 218 249 243 200 197 215 192 143 113 88 48 38 29 24 12 354 354 3 349 328 348 3 2 351 344 338 325 324 329 333 338 347 356 359 0 3 3 0 360 2 5 7 8 9 11 13 13 11 9 8 9 12 15 16 16 18 19 15 11 9 9 10 14 17 17 6 329 251 226 222 217 210 208 215 227 238 243 245 247 247 246 244 244
214 235 258 8 340 330 15 90 108 214 188 137 111 95 67 62 54 39 21 0 355 1 359 325 336 0 7 358 352 355 353 344 342 341 341 347 357 360 360 0 360 359 360 2 4 6 8 10 13 16 15 13 10 9 10 12 14 13 12 13 15 13 11 9 7 4 6 10 13 11 360 323 276 252 241 236 233 227 224 230 240 244 244 245 246 247 248
227 205 87 47 1 340 342 162 190 205 189 132 112 103 75 65 57 40 23 9 0 2 6 357 351 5 11 8 5 7 7 4 360 356 354 355 359 360 359 359 360 1 4 5 5 5 7 11 16 18 16 13 11 12 13 14 14 12 10 10 11 9 7 7 5 2 2 5 7 8 6 353 325 303 286 268 255 246 239 236 239 243 246 246 247 249 252
219 160 110 113 181 266 276 250 181 177 163 129 121 113 82 61 50 35 20 4 355 357 3 4 2 5 8 11 13 12 10 8 6 3 3 3 4 4 4 4 4 4 7 8 7 6 8 12 15 16 15 13 12 13 14 15 15 13 10 10 11 9 6 5 4 2 1 3 4 3 2 357 338 312 301 291 277 268 261 252 242 241 247 252 252 251 255
111 100 96 123 176 208 247 48 79 107 124 118 108 95 80 67 50 28 0 346 348 354 356 359 3 6 8 15 19 15 8 7 5 4 6 8 9 9 9 8 7 8 11 12 10 8 9 12 13 13 12 12 13 15 16 16 16 15 13 13 13 10 8 7 7 6 2 3 8 9 4 359 350 322 292 280 274 269 266 261 254 251 256 262 261 256 254
129 104 86 60 52 75 76 70 78 95 129 129 96 77 72 77 66 29 343 338 356 359 348 351 2 7 9 20 27 23 17 19 18 14 13 13 13 13 13 12 10 10 10 10 9 8 9 10 11 11 10 10 13 17 17 17 16 16 17 17 16 15 15 15 14 13 11 8 11 14 11 4 359 349 319 282 267 258 254 256 261 263 265 268 269 265 259
71 61 61 37 37 61 71 47 335 12 20 113 106 89 74 74 67 29 343 337 351 353 348 352 1 2 3 25 39 35 32 35 33 25 21 20 18 17 17 17 15 12 8 6 7 8 9 10 11 11 10 11 14 18 20 19 16 15 17 17 16 18 22 24 23 21 20 17 16 16 14 9 3 357 349 332 310 287 271 261 255 257 261 261 261 264 264
57 34 27 21 32 50 41 3 352 357 2 73 116 135 136 111 102 67 347 336 342 353 355 354 354 354 5 37 47 40 41 46 42 31 26 24 21 20 20 20 19 16 12 10 10 11 12 12 12 13 14 15 17 21 24 23 20 17 17 16 16 18 22 25 26 25 24 24 22 19 17 13 7 1 356 352 345 332 314 292 270 261 260 255 256 263 268
75 42 3 356 20 28 10 357 344 321 334 49 140 173 171 147 135 126 354 349 360 6 1 351 351 0 19 48 51 45 50 54 45 32 28 26 23 23 23 23 21 19 16 15 16 18 18 18 18 18 20 21 22 25 28 28 25 23 21 19 18 20 22 25 27 28 27 27 24 21 20 19 15 10 4 358 355 349 340 328 309 288 272 259 257 263 267
133 161 208 220 203 197 206 43 37 348 6 29 59 118 141 145 137 76 28 13 8 1 352 351 2 16 30 46 52 50 54 57 45 30 28 28 26 25 25 24 24 23 21 20 19 21 23 24 24 24 25 24 25 28 31 31 29 28 27 26 23 22 22 24 27 29 28 26 25 24 24 22 19 17 13 7 4 0 354 348 341 328 310 287 270 264 261
142 138 51 55 137 165 161 137 114 99 78 66 73 102 132 150 133 64 24 7 4 2 2 6 16 25 33 43 55 57 56 59 60 47 37 34 32 30 28 26 23 21 21 20 19 21 26 29 29 28 27 26 27 28 31 33 32 31 31 31 30 28 26 26 28 29 29 29 28 27 26 23 22 22 22 19 16 13 7 1 355 347 338 328 315 298 282
119 74 30 28 81 125 128 120 112 108 108 114 122 120 118 123 109 61 19 15 23 25 24 25 24 21 23 32 52 66 60 63 68 59 46 40 38 36 32 27 21 18 17 16 16 21 30 35 34 34 33 30 28 30 33 35 34 33 32 33 33 32 31 30 30 30 29 30 30 30 29 28 28 27 26 25 24 21 18 14 9 4 356 347 336 327 318
105 80 64 39 65 113 122 123 116 109 110 119 116 89 71 78 89 48 27 34 38 34 32 33 29 18 16 31 63 76 66 63 67 63 50 44 44 42 37 29 22 19 16 10 12 20 32 40 42 43 41 36 32 32 33 36 37 36 34 33 32 32 32 32 32 31 29 29 30 30 30 31 30 28 28 27 26 25 24 22 20 19 16 11 6 359 350
108 81 71 73 114 113 127 139 130 117 114 118 107 80 71 75 73 56 43 41 40 35 35 37 35 27 26 39 65 76 67 62 65 61 50 45 48 47 40 28 21 19 16 12 17 25 34 40 45 46 44 40 36 34 34 36 38 38 36 34 33 33 32 32 32 32 30 29 29 29 30 30 29 27 27 27 26 27 27 26 26 27 26 26 26 27 25
115 83 70 96 150 115 115 139 141 131 128 132 124 102 91 89 80 67 58 53 51 48 45 43 41 36 31 34 50 68 71 68 65 60 53 49 50 50 44 34 29 28 28 29 31 34 34 35 39 41 40 37 35 35 35 37 39 39 38 37 35 34 34 33 33 33 32 31 30 29 29 28 28 27 26 26 26 27 27 27 28 29 28 29 31 33 33
145 109 91 107 154 112 111 140 154 154 151 148 143 130 115 104 91 78 69 65 64 64 59 53 48 42 35 34 41 53 68 68 61 56 53 46 42 43 41 33 31 35 40 41 40 39 36 34 36 39 40 38 36 37 41 43 43 43 42 40 38 37 36 35 35 34 33 32 31 29 28 27 27 27 27 26 25 25 25 26 27 27 25 26 28 30 32
171 145 119 117 125 106 97 142 168 174 170 162 158 155 142 125 115 107 94 83 78 74 66 60 55 51 50 55 59 62 67 69 62 57 51 44 38 36 30 22 25 35 47 49 46 42 39 37 37 39 43 45 44 46 51 53 51 49 47 44 41 40 39 38 38 36 34 34 33 31 30 29 28 27 26 26 26 25 24 25 26 26 25 25 25 26 28
169 151 133 126 124 110 89 103 154 176 189 190 174 164 155 144 139 136 125 108 98 89 73 61 59 58 58 63 68 65 64 69 71 63 54 47 42 38 28 23 30 41 51 55 52 48 44 41 38 38 42 48 50 52 57 60 58 55 53 50 47 44 42 41 40 39 37 37 35 33 32 32 30 29 27 26 25 25 25 24 25 25 25 26 27 26 26
163 148 137 133 132 123 110 112 129 154 197 207 183 173 172 168 160 153 150 148 152 143 106 74 63 59 53 50 53 54 54 62 73 71 59 51 49 48 47 46 46 47 52 58 59 54 48 43 39 37 39 46 52 55 59 62 63 60 57 53 50 47 44 43 42 41 40 39 36 34 33 32 31 30 29 28 27 26 26 26 26 25 25 26 28 29 28
162 152 143 138 133 126 129 140 142 128 142 178 175 176 182 183 176 169 168 173 176 163 135 100 77 65 53 47 52 58 57 55 56 55 50 46 44 46 53 56 50 46 51 61 64 61 54 47 41 38 38 43 48 54 58 61 61 60 58 56 53 49 46 43 41 40 39 38 37 36 35 33 32 31 31 30 29 29 28 28 28 28 28 29 30 30 31
165 161 152 146 143 139 143 160 176 175 156 166 166 161 171 186 190 188 188 197 199 176 147 124 101 80 61 56 67 78 75 63 53 50 51 50 38 33 44 53 47 43 52 64 70 68 63 54 47 43 42 42 46 52 57 60 60 58 57 57 55 52 50 47 45 44 42 40 41 42 41 40 39 38 36 35 34 33 32 31 31 31 32 33 32 31 32
166 166 161 160 169 176 176 191 215 214 177 172 172 149 140 175 188 181 175 207 205 178 155 138 119 102 82 72 80 88 85 75 64 58 62 68 60 47 51 57 46 41 52 64 70 71 71 65 55 49 45 44 46 50 54 57 59 59 58 57 55 53 51 50 49 48 46 45 46 47 48 48 47 46 44 42 41 39 39 37 35 34 35 37 37 37 36
172 172 170 173 184 192 196 209 224 206 173 170 174 151 130 146 156 140 97 84 152 163 159 149 137 136 127 96 84 86 88 86 79 70 68 70 61 50 48 45 34 33 51 66 69 70 73 74 68 58 51 49 49 51 53 55 57 57 57 57 55 54 53 53 51 49 48 48 48 49 50 50 49 48 47 46 43 42 42 41 39 38 39 40 40 40 39
181 181 180 182 189 196 206 218 223 202 178 169 163 149 141 144 145 128 100 103 139 156 159 154 152 160 158 122 90 88 91 90 84 79 78 70 51 39 39 38 30 30 52 69 70 69 71 76 78 71 61 55 52 52 54 56 57 57 58 58 56 54 53 53 52 51 50 49 49 48 46 45 45 45 46 45 43 42 42 42 40 40 41 42 42 41 41
187 185 185 186 189 198 211 218 207 186 179 173 162 153 154 156 147 130 121 134 152 161 164 164 167 170 164 141 121 116 108 97 93 98 99 85 54 40 38 35 31 35 50 64 67 68 71 77 82 81 71 62 56 53 53 56 58 59 60 61 61 60 58 56 55 54 53 52 52 50 47 44 43 43 43 43 43 42 42 41 40 41 42 43 43 42 42
184 181 184 185 185 195 215 224 211 188 182 179 171 162 163 165 159 147 144 150 159 165 166 163 161 160 155 143 136 133 122 104 97 103 106 95 70 50 39 33 34 42 51 58 62 65 69 76 84 85 80 72 64 57 54 55 58 60 61 62 63 64 63 61 60 59 56 53 52 52 50 47 45 43 42 41 41 41 41 40 39 40 42 43 42 41 41
179 184 190 192 194 206 222 228 221 203 192 188 183 175 174 177 177 173 165 160 158 160 159 156 153 153 152 148 142 138 133 121 111 111 111 103 83 63 46 38 41 47 49 52 55 58 61 69 80 86 86 80 72 65 61 60 60 61 62 62 62 62 62 61 61 61 60 57 54 52 50 49 47 45 43 40 39 39 39 39 38 38 39 40 41 41 43
188 191 195 199 208 221 229 229 222 209 199 194 190 186 183 183 182 181 179 177 170 165 163 162 162 162 162 161 155 150 146 139 130 124 123 114 93 73 58 50 50 50 50 52 54 55 54 60 70 80 85 83 77 70 67 67 67 67 67 65 63 62 62 61 59 59 59 59 58 55 53 51 50 48 45 43 41 40 40 40 39 38 39 40 42 43 44